Regional Weather Roundup
Issued by NWS Charleston, WV

Home | Current Version | Previous Version | Graphics & Text | Print | Product List | Glossary On
Versions: 1 2 3 4 5 6 7 8 9 10 11 12 13 14 15 16 17 18 19 20 21 22 23 24 25 26 27 28
000
ASUS41 KRLX 180910
RWRRLX
West Virginia Regional Weather Roundup
National Weather Service Charleston WV
400 AM EST THU JAN 18 2018

Note: "fair" indicates few or no clouds below 12,000 feet with no
significant weather and/or obstructions to visibility.

WVZ003-181000-
Northern Panhandle of West Virginia

CITY           SKY/WX    TMP DP  RH WIND       PRES   REMARKS
WHEELING         N/A      7   3  84 SW13      30.27F WCI  -9
$$

WVZ009-181000-
Northwest West Virginia

CITY           SKY/WX    TMP DP  RH WIND       PRES   REMARKS
PARKERSBURG      N/A      7   3  84 S8        30.40S WCI  -6
$$

WVZ006-181000-
Western West Virginia

CITY           SKY/WX    TMP DP  RH WIND       PRES   REMARKS
HUNTINGTON       N/A      6   2  83 SW7       30.42F WCI  -6
$$

WVZ015-181000-
West Central West Virginia

CITY           SKY/WX    TMP DP  RH WIND       PRES   REMARKS
CHARLESTON       N/A     10   4  76 SW8       30.40F WCI  -2
$$

WVZ022-031-181000-
North Central West Virginia

CITY           SKY/WX    TMP DP  RH WIND       PRES   REMARKS
CLARKSBURG     CLOUDY    12   6  77 SW9       30.34F WCI   0
MORGANTOWN     CLOUDY    11   5  77 SW7       30.32F WCI   0
$$

WVZ025-035-042-045-181000-
Southern West Virginia

CITY           SKY/WX    TMP DP  RH WIND       PRES   REMARKS
BECKLEY        CLOUDY     7   3  84 W9        30.25F WCI  -7
LOGAN          FLURRIES  10   7  85 CALM      30.36F
BLUEFIELD      LGT SNOW   4   1  88 W9        30.23S FOG     WCI -10
LEWISBURG      MOCLDY     8   4  81 SW7       30.23F WCI  -3
$$

WVZ047-181000-
Northern Mountains of West Virginia

CITY           SKY/WX    TMP DP  RH WIND       PRES   REMARKS
ELKINS         CLOUDY     9   4  80 SE5       30.28F WCI   1
$$

WVZ052-181000-
Eastern Panhandle of West Virginia

CITY           SKY/WX    TMP DP  RH WIND       PRES   REMARKS
MARTINSBURG      N/A     17   4  56 NW6       30.19F WCI   9
PETERSBURG       N/A      2  -1  87 CALM      30.24F
$$




USA.gov is the U.S. government's official web portal to all federal, state and local government web resources and services.